TimeCST,TemperatureF,Dew PointF,Humidity,Sea Level PressureIn,VisibilityMPH,Wind Direction,Wind SpeedMPH,Gust SpeedMPH,PrecipitationIn,Events,Conditions,WindDirDegrees,DateUTC
12:53 AM,35.1,27.0,72,30.34,10.0,NE,8.1,-,N/A,,Overcast,50,2013-02-09 06:53:00
1:53 AM,35.1,27.0,72,30.34,10.0,NNE,10.4,-,N/A,,Overcast,30,2013-02-09 07:53:00
2:53 AM,35.1,27.0,72,30.34,10.0,NE,10.4,-,N/A,,Overcast,50,2013-02-09 08:53:00
3:53 AM,35.1,27.0,72,30.33,10.0,NE,10.4,-,N/A,,Overcast,40,2013-02-09 09:53:00
4:53 AM,34.0,26.1,73,30.34,10.0,East,9.2,-,N/A,,Overcast,80,2013-02-09 10:53:00
5:53 AM,34.0,26.1,73,30.36,10.0,NE,9.2,-,N/A,,Overcast,50,2013-02-09 11:53:00
6:53 AM,34.0,25.0,70,30.37,10.0,ENE,8.1,-,N/A,,Overcast,60,2013-02-09 12:53:00
7:53 AM,36.0,26.1,67,30.39,10.0,ENE,5.8,-,N/A,,Mostly Cloudy,60,2013-02-09 13:53:00
8:19 AM,37.4,26.6,65,30.37,10.0,East,5.8,-,N/A,,Scattered Clouds,80,2013-02-09 14:19:00
8:53 AM,37.9,26.1,62,30.38,10.0,ENE,8.1,-,N/A,,Scattered Clouds,70,2013-02-09 14:53:00
9:53 AM,39.9,26.1,58,30.38,10.0,SE,3.5,-,N/A,,Scattered Clouds,130,2013-02-09 15:53:00
10:53 AM,43.0,26.1,51,30.36,10.0,NNE,3.5,-,N/A,,Mostly Cloudy,30,2013-02-09 16:53:00
11:53 AM,46.0,26.1,46,30.33,10.0,East,4.6,-,N/A,,Mostly Cloudy,90,2013-02-09 17:53:00
12:53 PM,48.9,26.1,41,30.29,10.0,East,5.8,-,N/A,,Mostly Cloudy,90,2013-02-09 18:53:00
1:53 PM,50.0,26.1,39,30.26,10.0,ESE,9.2,-,N/A,,Mostly Cloudy,110,2013-02-09 19:53:00
2:53 PM,52.0,27.0,38,30.24,10.0,ESE,5.8,-,N/A,,Mostly Cloudy,120,2013-02-09 20:53:00
3:53 PM,53.1,26.1,35,30.22,10.0,Variable,4.6,-,N/A,,Mostly Cloudy,0,2013-02-09 21:53:00
4:53 PM,50.0,27.0,41,30.22,10.0,ENE,3.5,-,N/A,,Mostly Cloudy,70,2013-02-09 22:53:00
5:53 PM,48.0,27.0,44,30.21,10.0,East,4.6,-,N/A,,Mostly Cloudy,80,2013-02-09 23:53:00
6:53 PM,46.9,28.0,48,30.20,10.0,Calm,Calm,-,N/A,,Mostly Cloudy,0,2013-02-10 00:53:00
7:53 PM,45.0,28.0,52,30.18,10.0,East,4.6,-,N/A,,Mostly Cloudy,90,2013-02-10 01:53:00
8:53 PM,43.0,30.9,62,30.18,10.0,Calm,Calm,-,N/A,,Mostly Cloudy,0,2013-02-10 02:53:00
9:53 PM,44.1,30.0,58,30.16,10.0,SE,3.5,-,N/A,,Mostly Cloudy,140,2013-02-10 03:53:00
10:53 PM,46.0,28.9,51,30.16,10.0,Calm,Calm,-,N/A,,Overcast,0,2013-02-10 04:53:00
11:53 PM,46.9,30.0,52,30.16,10.0,SSE,6.9,-,N/A,,Overcast,160,2013-02-10 05:53:00